Preview of NWS' New Version of Forecast
This preview is not operational and should not be used for support decisions.

Regional Weather Roundup (RWR)

Issued by National Weather Service (NWS)

                            
000
ASUS45 KBOI 251610
RWRID 

IDAHO REGIONAL WEATHER ROUNDUP
NATIONAL WEATHER SERVICE BOISE ID
1000 AM MDT THU APR 25 2019

NOTE: "FAIR" INDICATES FEW OR NO CLOUDS BELOW 12000 FEET
WITH NO SIGNIFICANT WEATHER AND/OR OBSTRUCTIONS TO VISIBILITY

IDZ012-014-251700-
SOUTHWEST IDAHO

  
CITY           SKY/WX    TMP DP  RH WIND       PRES   REMARKS
BOISE          FAIR      53  31  42 CALM      30.16S                  
CALDWELL       FAIR      53  35  50 CALM      30.17S                  
MOUNTAIN HOME  FAIR      51  31  45 CALM      30.17S                  
$$

IDZ016-017-251700-
SOUTHCENTRAL IDAHO

  
CITY           SKY/WX    TMP DP  RH WIND       PRES   REMARKS
BURLEY         FAIR      54  28  36 W6        30.17S                  
JEROME         FAIR      50  30  46 CALM      30.18S                  
TWIN FALLS     FAIR      56  31  38 W7        30.17F                  
$$

IDZ019>023-251700-
SOUTHEAST IDAHO

  
CITY           SKY/WX    TMP DP  RH WIND       PRES   REMARKS
IDAHO FALLS    FAIR      48  32  53 S3        30.21S                  
POCATELLO      FAIR      53  30  41 CALM      30.20S                  
REXBURG        FAIR      48  29  47 CALM      30.20F                  
$$

IDZ006-010-011-018-031-032-251700-
CENTRAL IDAHO MOUNTAINS

  
CITY           SKY/WX    TMP DP  RH WIND       PRES   REMARKS
MCCALL           N/A     39  32  76 S6        30.17S WCI  35          
HAILEY         SUNNY     48  23  37 NW9       30.21F                  
STANLEY          N/A     36  23  59 CALM      30.24F                  
SALMON         FAIR      42  24  49 CALM      30.24F                  
CHALLIS        FAIR      47  23  38 CALM      30.21F                  
$$

IDZ002-004-006-007-026-251700-
NORTHERN IDAHO

  
CITY           SKY/WX    TMP DP  RH WIND       PRES   REMARKS
LEWISTON       FAIR      50  37  61 E3        30.21F                  
LOWELL           N/A     46  38  73 CALM      30.26F                  
COEUR D'ALENE  FAIR      49  29  46 NE10      30.22F                  
MULLAN PASS    FAIR      41  18  39 S6        30.20R                  
$$